Tracking 19795 objects as of 18-Jul-2019
HD Live streaming from Space Station
objects crossing your sky now

IUS DEB

Track IUS DEB now!
10-day predictions


NORAD ID: 43363
Int'l Code: 1999-040L
Perigee: 647.4 km
Apogee: 7,694.6 km
Inclination: 28.3 °
Period: 179.5 minutes
Semi major axis: 10541 km
RCS: Unknown
Launch date: July 23, 1999
Source: United States (US)
Launch site: AIR FORCE EASTERN TEST RANGE (AFETR)

Note: This is SATELLITE DEBRIS
aabbcc
Your satellite tracking list
Your tracking list is empty




NASA's NSSDC Master Catalog

Two Line Element Set (TLE):
1 43363U 99040L   19197.55277439 +.00001660 +00000-0 +35563-2 0  9997
2 43363 028.2528 291.3922 3342468 185.5668 169.5733 08.02083700013405
Source of the keplerian elements: AFSPC